Aérodrome :
LOGIN :

S'inscrire | Disclaimer

   EN    FR    IT 

 










Légende :    VFR   VFR Marginal   IFR   IFR Intensif   IFR Très Intensif
Visi : 
Plafond : 
>= 8 km
>= 3000ft
5 à 8 km
1000 à 3000 ft
1500m à 5 km
500 à 1000 ft
800 à 1500m
200 à 500 ft
< 800m
< 200 ft
Symboles :   Orages  Brouillard  Fortes neiges  Fortes précipitations  Vent > 20 kt
SIGMETs :   Divers  Orages  Givrage  Turbulence  Onde Orograph.  Cendres Volcan.







- Altitude de l'aérodrome : 80 ft
- Code IATA : LPL
- Voir les cartes d'approche


EGGP - Liverpool John Lennon

DERNIER METAR :
  • 251820Z 05011KT 9999 FEW012 BKN045 15/14 Q1020

METARs EXPIRÉS :
  • 251720Z 05014KT 9999 FEW013 SCT028 15/13 Q1019
  • 251650Z 05012KT 9999 SCT015 BKN030 15/14 Q1019
  • 251620Z 05011KT 9000 -RADZ BKN014 BKN029 15/13 Q1019
  • 251550Z 05011KT 9000 -RADZ SCT014 BKN029 15/14 Q1020

TAF TAF EGGP
Valide du 25 à 18h jusqu'au 26 à 18h UTC


251656Z 2518/2618 03007KT 9999 FEW015 SCT030
TEMPO 2518/2609 BKN012
PROB30
TEMPO 2518/2520 8000 SHRA
PROB30
TEMPO 2608/2612 7000 SHRA
ATIS : +44 151 907 2000 (option 5 or ext 5150)
Météo : +44 871 750 5150
Pas de NOTAMs connus pour ce terrain.



MET'MAP, la Météo Aéronautique d'un coup d'oeil ! - Copyright ORBIFLY Décembre 2007 - Disclaimer

ORBIFLY MET'MAP TEAM :

Programmation & Développement : Alexandra Zaïnal
Conception & Développement : Baudouin d'Aumeries
Co-Programmation & Développement : Marc-Olivier Méhu
Soutien technique & logistique : Manuel Goepfert

Contact : metmap@orbifly.com




SOURCES & CREDITS :

   NOAA